TimeAST,TemperatureF,Dew PointF,Humidity,Sea Level PressureIn,VisibilityMPH,Wind Direction,Wind SpeedMPH,Gust SpeedMPH,PrecipitationIn,Events,Conditions,WindDirDegrees,DateUTC
12:00 AM,34.7,20.5,56,30.03,-9999.0,NW,8.1,-,N/A,,Unknown,310,2013-02-15 04:00:00
1:00 AM,34.7,19.8,54,30.04,-9999.0,NW,6.9,-,N/A,,Unknown,310,2013-02-15 05:00:00
2:00 AM,35,20,42,30.05,,NNW,3.5,,,,,340,2013-02-15 06:00:00
2:00 AM,34.7,20.5,56,30.05,-9999.0,NNW,3.5,-,N/A,,Unknown,340,2013-02-15 06:00:00
3:00 AM,34.2,19.4,55,30.07,-9999.0,SSW,3.5,-,N/A,,Unknown,210,2013-02-15 07:00:00
4:00 AM,33.4,19.0,56,30.07,-9999.0,SSE,3.5,-,N/A,,Unknown,160,2013-02-15 08:00:00
5:00 AM,31.8,25.5,78,30.07,-9999.0,SSE,4.6,-,N/A,,Unknown,150,2013-02-15 09:00:00
6:00 AM,33.6,30.2,87,30.08,-9999.0,SE,6.9,-,N/A,,Unknown,140,2013-02-15 10:00:00
7:00 AM,34.9,28.6,78,30.08,-9999.0,SE,9.2,-,N/A,,Unknown,130,2013-02-15 11:00:00
8:00 AM,35,29,70,30.09,,SE,9.2,,,,,130,2013-02-15 12:00:00
8:00 AM,35.2,28.8,77,30.09,-9999.0,SE,9.2,-,N/A,,Unknown,130,2013-02-15 12:00:00
9:00 AM,36.3,29.1,75,30.09,-9999.0,SE,9.2,-,N/A,,Unknown,140,2013-02-15 13:00:00
10:00 AM,38.7,31.5,75,30.09,-9999.0,SE,12.7,-,N/A,,Unknown,140,2013-02-15 14:00:00
11:00 AM,41.5,31.3,67,30.09,-9999.0,SSE,13.8,20.7,N/A,,Unknown,150,2013-02-15 15:00:00
12:00 PM,39.0,34.3,83,30.10,-9999.0,SSE,13.8,19.6,N/A,,Unknown,150,2013-02-15 16:00:00
1:00 PM,40.6,33.1,74,30.09,-9999.0,SSE,15.0,-,N/A,,Unknown,160,2013-02-15 17:00:00
2:00 PM,40,34,70,30.09,,SSE,16.1,,,,,150,2013-02-15 18:00:00
2:00 PM,39.6,33.6,79,30.09,-9999.0,SSE,16.1,23.0,N/A,,Unknown,150,2013-02-15 18:00:00
3:00 PM,38.8,33.1,80,30.07,-9999.0,SSE,17.3,25.3,N/A,,Unknown,150,2013-02-15 19:00:00
4:00 PM,38.7,33.8,83,30.05,-9999.0,SE,24.2,29.9,N/A,,Unknown,140,2013-02-15 20:00:00
5:00 PM,38.1,34.0,85,30.05,-9999.0,SSE,20.7,27.6,N/A,,Unknown,150,2013-02-15 21:00:00
6:00 PM,37.8,34.2,87,30.05,-9999.0,SSE,21.9,29.9,N/A,,Unknown,150,2013-02-15 22:00:00
7:00 PM,37.6,34.2,87,30.05,-9999.0,SE,21.9,-,N/A,,Unknown,140,2013-02-15 23:00:00
8:00 PM,37,35,87,30.03,,SSE,24.2,,,,,150,2013-02-16 00:00:00
8:00 PM,37.4,34.5,89,30.03,-9999.0,SSE,24.2,29.9,N/A,,Unknown,150,2013-02-16 00:00:00
9:00 PM,36.7,34.2,91,30.05,-9999.0,SSE,18.4,26.5,N/A,,Unknown,150,2013-02-16 01:00:00
10:00 PM,36.5,33.8,90,30.04,-9999.0,SSE,18.4,24.2,N/A,,Unknown,150,2013-02-16 02:00:00
11:00 PM,36.9,34.5,91,30.04,-9999.0,SSE,16.1,-,N/A,,Unknown,150,2013-02-16 03:00:00